#timestamp,LO_Frequency,Hit,StdDev 
1656799215.2,286046997.3,N
1656799235.1,286046996.5,N
1656799236.0,286047011.9,Y
1656799255.8,286046998.1,P
1656799275.6,286046998.2,P
1656799295.5,286046998.7,P
1656799315.3,286046997.1,Y
1656799335.2,286046998.6,P
1656799355.9,286047000.7,P
1656799375.7,286046998.2,N
1656799395.6,286047000.8,N
1656799415.4,286047000.8,N
1656799435.3,286047001.0,N
1656799455.1,286046998.1,N
1656799456.0,286046998.1,N
1656799475.8,286046998.4,N
1656799495.7,286046998.6,N
1656799515.5,286046998.7,N
1656799535.3,286046998.6,N
1656799555.2,286047000.7,N
1656799575.0,286047000.2,N
1656799575.9,286047000.2,N
1656799595.8,286046999.7,N
1656799615.6,286047002.3,N
1656799635.4,286047002.3,N
1656799655.3,286047002.4,N
1656799675.1,286047002.7,N
1656799695.8,286047000.2,N
1656799715.7,286046998.1,N
1656799735.5,286047000.0,N
1656799755.4,286046999.8,N
1656799775.2,286047001.0,N
1656799795.0,286047002.0,N
1656799795.9,286047002.0,N
1656799815.8,286047002.0,N
1656799835.6,286047000.5,N
1656799855.4,286047000.4,N
1656799875.3,286047000.1,N
1656799895.1,286047001.0,N
1656799915.9,286047000.4,N
1656799935.7,286047000.6,N
1656799955.5,286047000.2,N
1656799975.4,286047000.7,N
1656799995.2,286046998.6,N
1656800015.0,286046999.0,N
1656800015.9,286046999.0,N
1656800035.8,286046999.3,N
1656800055.6,286046998.7,N
1656800075.5,286046999.5,N
1656800095.3,286046999.0,N
1656800115.1,286046999.3,N
1656800135.9,286046999.4,N
1656800155.7,286046998.1,N
1656800175.5,286046998.7,N
1656800195.4,286046996.5,N
1656800215.2,286046997.6,N
1656800235.1,286046997.9,N
1656800236.0,286046997.9,N
1656800255.8,286046995.4,Y
1656800275.6,286046997.6,P
1656800295.5,286046995.6,P
1656800315.3,286046996.0,N
1656800335.2,286046997.8,N
1656800355.9,286046997.2,N
1656800375.7,286046996.7,N
1656800395.6,286046995.6,Y
1656800415.4,286046999.0,P
1656800435.3,286046998.6,N
1656800455.1,286046999.0,N
1656800456.0,286046999.0,N
1656800475.8,286046996.8,Y
1656800495.7,286047000.1,P
1656800515.5,286047000.2,N
1656800535.3,286047001.1,N
1656800555.2,286046998.1,N
1656800575.0,286046998.9,N
1656800575.9,286046998.9,N
1656800595.8,286046998.1,N
1656800615.6,286046998.9,N
1656800635.4,286047001.1,N
1656800655.3,286046999.0,N
1656800675.1,286047001.1,N
1656800695.9,286046998.6,N
1656800715.7,286046998.6,N
1656800735.5,286047001.0,N
1656800755.4,286047001.2,N
1656800775.2,286046999.7,N
1656800795.1,286047000.4,N
1656800796.0,286047000.4,N
1656800815.8,286047000.5,N
1656800835.6,286047000.0,N
1656800855.5,286047001.0,N
1656800875.3,286047001.1,N
1656800895.1,286047001.0,N
1656800915.9,286046999.8,N
1656800935.7,286047000.6,N
1656800955.6,286046999.0,N
1656800975.4,286046996.9,Y
1656800995.2,286046998.2,P
1656801015.1,286046997.9,N
1656801016.0,286046997.9,N
1656801035.8,286046997.4,Y
1656801055.7,286047000.2,P
1656801075.5,286046998.4,N
1656801095.3,286046998.2,N
1656801115.2,286046999.6,N
1656801135.0,286046996.9,Y
1656801135.9,286046996.9,P
1656801155.8,286046998.9,N
1656801175.6,286046998.9,N
1656801195.4,286046998.3,N
1656801215.3,286046999.4,N
1656801235.1,286047002.4,N
1656801255.8,286047001.7,N
1656801275.7,286047002.4,N
1656801295.5,286047002.8,N
1656801315.4,286047000.9,N
1656801335.2,286047000.1,N
1656801355.0,286047000.5,N
1656801355.9,286047000.5,N
1656801375.8,286047002.4,N
1656801395.6,286047000.6,N
1656801415.4,286047000.7,N
1656801435.3,286046998.6,N
1656801455.1,286046996.7,N
1656801475.9,286046996.5,N
1656801495.7,286046999.5,N
1656801515.5,286046998.2,N
1656801535.4,286047000.5,N
1656801555.2,286047002.4,N
1656801575.1,286047000.3,N
1656801576.0,286047000.3,N
1656801595.8,286047000.7,N
1656801615.6,286046998.7,N
1656801635.5,286046998.4,N
1656801655.3,286046995.6,N
1656801675.1,286046995.0,N
1656801695.9,286046996.7,N
1656801715.7,286046996.7,N
1656801735.6,286046998.9,N
1656801755.4,286046997.3,N
1656801775.2,286046997.5,N
1656801795.1,286046995.8,N
1656801796.0,286046995.8,N
1656801815.8,286046995.2,N
1656801835.6,286046995.5,N
1656801855.5,286046995.6,N
1656801875.3,286046995.5,N
1656801895.2,286046995.4,N
1656801915.9,286046997.8,N
1656801935.7,286046997.7,N
1656801955.6,286046996.5,N
1656801975.4,286046997.1,N
1656801995.2,286046996.6,N
1656802015.1,286046997.2,N
1656802016.0,286046997.2,N
1656802035.8,286046999.6,N
1656802055.7,286046995.6,N
1656802075.5,286046997.8,N
1656802095.3,286046997.3,N
1656802115.2,286046997.1,N
1656802135.0,286046997.3,N
1656802135.9,286046997.3,N
1656802155.8,286046997.0,N
1656802175.6,286046996.9,N
1656802195.4,286046995.2,Y
1656802215.3,286047000.3,P
1656802235.1,286046999.9,N
1656802255.8,286047000.5,N
1656802275.7,286047002.1,N
1656802295.5,286047002.0,N
1656802315.4,286047002.0,N
1656802335.2,286047001.6,N
1656802355.0,286047002.3,N
1656802355.9,286047002.3,N
1656802375.8,286047001.9,N
1656802395.6,286047002.0,N
1656802415.4,286047000.2,N
1656802435.3,286046998.6,N
1656802455.1,286047000.9,N
1656802475.9,286047002.2,N
1656802495.7,286047002.6,N
1656802515.5,286047001.3,N
1656802535.4,286047002.2,N
1656802555.2,286047003.3,N
1656802575.0,286047003.5,N
1656802575.9,286047003.5,N
1656802595.8,286047002.3,N
1656802615.6,286047001.5,N
1656802635.5,286047003.5,N
1656802655.3,286047001.8,N
1656802675.1,286047003.1,N
1656802695.9,286047003.6,N
1656802715.7,286047001.5,N
1656802735.5,286047002.1,N
1656802755.4,286047001.7,N
1656802775.2,286047001.9,N
1656802795.1,286047002.3,N
1656802796.0,286047002.3,N
